Weather Service Report


937 
ASUS45 KABQ 301910
RWRNM 
NEW MEXICO REGIONAL WEATHER ROUNDUP
NATIONAL WEATHER SERVICE ALBUQUERQUE NM
100 PM MDT THU JUN 30 2016

NOTE: "FAIR" MEANS FEW OR NO CLOUDS BELOW 12,000 FEET AGL WITH NO
       SIGNIFICANT WEATHER OR OBSTRUCTIONS TO VISION.

      THIS PRODUCT IS RELEASED AS TWO VERSIONS.  ONE VERSION NEAR
      THE TOP OF THE HOUR CONTAINING PRELIMINARY DATA FROM ALBUQUERQUE
      AND OTHER STATIONS.  A FINAL VERSION WITH ADDITIONAL DATA IS 
      ISSUED ABOUT 10 MINUTES AFTER THE HOUR.
 
NMZ501-503-504-510>518-302000-
NORTHWEST PLATEAU/NORTHCENTRAL MOUNTAINS
  
CITY           SKY/WX    TMP DP  RH WIND       PRES   REMARKS
FARMINGTON     FAIR      83  45  26 SW13      30.19F                  
LOS ALAMOS     FAIR      77  41  27 SW5       30.31F                  
SANTA FE       FAIR      84  44  24 W13G22    30.26F                  
TAOS           FAIR      77  46  33 W8G17       N/A                   
ANGEL FIRE     FAIR      71  50  47 W17G23    30.39F                  

$$
NMZ402-403-502-505>509-302000-
WESTCENTRAL MOUNTAINS/SOUTHWEST MOUNTAINS
  
CITY           SKY/WX    TMP DP  RH WIND       PRES   REMARKS
GALLUP         CLOUDY    74  49  41 SW21G26   30.32R                  
GRANTS         FAIR      82  44  26 CALM      30.29F THUNDER          
SILVER CITY    FAIR      83  51  33 SE7       30.19F                  

$$
NMZ407-409-411-412-302000-
SOUTHERN DESERTS
  
CITY           SKY/WX    TMP DP  RH WIND       PRES   REMARKS
LORDSBURG      FAIR      86  55  35 W8        30.11F                  
DEMING         FAIR      89  56  32 S8        30.10F                  
LAS CRUCES     FAIR      88  49  26 SE12G17   30.14F                  
HOLLOMAN AFB   FAIR      89  48  23 S8        30.09F                  
ALAMOGORDO     FAIR      91  48  22 S16       30.11F                  
T OR C         FAIR      87  48  25 SE5       30.15F                  

$$
NMZ519>523-302000-
CENTRAL VALLEYS/CENTRAL HIGHLANDS
  
CITY           SKY/WX    TMP DP  RH WIND       PRES   REMARKS
ALBUQUERQUE    PTSUNNY   81  49  32 N7        30.22F                  
DOUBLE EAGLE   PTSUNNY   79  52  38 CALM      30.25F                  
MORIARTY ARPT  FAIR      84  41  21 CALM      30.26F                  
CLINES CORNERS FAIR      79  -2   4 W12G18    30.30F                  
BELEN          FAIR      85  47  26 NE5       30.19F                  
SOCORRO        FAIR      91  45  20 SE12G22   30.15F                  

$$
NMZ524>526-539-540-302000-
SOUTHCENTRAL MOUNTAINS
  
CITY           SKY/WX    TMP DP  RH WIND       PRES   REMARKS
RUIDOSO          N/A     82  32  16 SE13G28   30.32F                  

$$
NMZ527>531-302000-
NORTHEAST HIGHLANDS/NORTHEAST PLAINS
  
CITY           SKY/WX    TMP DP  RH WIND       PRES   REMARKS
LAS VEGAS      FAIR      84  41  21 SW21G30   30.27F                  
RATON          PTSUNNY   78  48  34 SW5       30.22F                  
CLAYTON        FAIR      83  61  47 S14       30.16F                  

$$
NMZ532>537-302000-
EASTCENTRAL PLAINS
  
CITY           SKY/WX    TMP DP  RH WIND       PRES   REMARKS
TUCUMCARI      FAIR      92  53  26 MISG      30.08F                  
CANNON AFB     PTSUNNY   88  56  33 SW12G20   30.12F                  
CLOVIS AIRPORT FAIR      88  57  35 SW14      30.13F                  

$$
NMZ028-029-538-302000-
SOUTHEAST PLAINS
  
CITY           SKY/WX    TMP DP  RH WIND       PRES   REMARKS
ROSWELL        FAIR      96  48  19 S14G21    30.08F                  
ARTESIA        FAIR      93  54  26 VRB7G17   30.08F                  
CARLSBAD       FAIR      93  54  26 SE14      30.07F                  
HOBBS          MOSUNNY   91  52  25 SE12G20   30.12F                  


$$
  

Return to Home page


Western Regional Climate Center, wrcc@dri.edu